Location: Enborne
(51.3833°N, 1.3667°W)
Time: 14:19:51
(UTC+00:00)

NOSS 2-2 (C) - Pass Details

Date: 23 January 2021
Orbit: 463 x 1745 km, 63.3° (Epoch: 03 March)

Event Time Altitude Azimuth Distance (km) Brightness Sun altitude
Rises 21:07:07 0° 313° (NW) 3,079 7.9 -40.9°
Reaches altitude 10° 21:09:11 10° 310° (NW) 2,298 7.1 -41.2°
Enters shadow 21:10:18 18° 307° (NW) 1,900 6.5 -41.4°
